Página principal
METAR-TAF:

METAR-TAF

Aeroportos :

Jendouba, Tunísia

latitude: 36-29N, longitude: 008-48E, altura: 143 m

Observação actual do tempo

O boletim foi feito há 59 minutos, às 12:00 UTC
Vento 6 kt de noroeste
Temperatura 16°C
Humidade 51%
Pressão 1028 hPa
Visibilidade 10 km ou mais
Nuvens dispersasa uma altura de 2000 ft

METAR: DTTN 181200Z 31006KT 9999 SCT020 16/06 Q1028

Hora: 13:59 (12:59 UTC)


TAF: em falta

Observações e previsões do tempo de mais de 4000 aeroportos (mensagens METAR e TAF).

As estações disponíveis são os pontos amarelos e vermelhos sobre o mapa.

Mova o rato sobre o mapa para ver o nome da estação.

Depois clique no ponto para visualizar as observações e previsões meteorológicas.

Para alterar o mapa : clique nos botões verdes com uma cruz preta para aumentar o zoom; no botão verde com uma pitada de zoom; ou nas setas verdes para mapas adjacentes.


METAR-TAF: